Previsão horária em Barnin

Hoje, 25 Outubro, Domingo

Tempo Temperatura Precipitação Vento Pressão Humidade
00:00 +12°C° 0 mm 4 m/s 758 mmHg 88%
01:00 +12°C° 0 mm 4 m/s 758 mmHg 89%
02:00 +12°C° 0 mm 5 m/s 758 mmHg 88%
03:00 +10°C° 0 mm 5 m/s 757 mmHg 87%
04:00 +10°C° 0 mm 5 m/s 757 mmHg 87%
05:00 +10°C° 0 mm 6 m/s 757 mmHg 88%
06:00 +9°C° 0 mm 6 m/s 757 mmHg 90%
07:00 +9°C° 0 mm 6 m/s 757 mmHg 91%
08:00 +10°C° 0 mm 6 m/s 757 mmHg 86%
09:00 +11°C° 0 mm 7 m/s 757 mmHg 80%
10:00 +14°C° 0 mm 7 m/s 757 mmHg 74%
11:00 +15°C° 0 mm 7 m/s 757 mmHg 71%
12:00 +15°C° 0 mm 7 m/s 757 mmHg 67%
13:00 +16°C° 0 mm 7 m/s 756 mmHg 64%
14:00 +16°C° 0 mm 7 m/s 756 mmHg 66%
15:00 +15°C° 0 mm 6 m/s 755 mmHg 68%
16:00 +14°C° 0 mm 6 m/s 755 mmHg 70%
17:00 +14°C° 0 mm 6 m/s 755 mmHg 72%
18:00 +13°C° 0 mm 6 m/s 755 mmHg 74%
19:00 +13°C° 0 mm 6 m/s 755 mmHg 75%
20:00 +13°C° 0 mm 6 m/s 755 mmHg 76%
21:00 +13°C° 0 mm 6 m/s 755 mmHg 77%
22:00 +12°C° 0 mm 7 m/s 754 mmHg 78%
23:00 +13°C° 0 mm 6 m/s 754 mmHg 80%

Amanhã, 26 Outubro, Segunda-feira

Tempo Temperatura Precipitação Vento Pressão Humidade
00:00 +11°C° 0 mm 6 m/s 754 mmHg 82%
01:00 +11°C° 0 mm 6 m/s 754 mmHg 84%
02:00 +11°C° 0 mm 6 m/s 754 mmHg 85%
03:00 +12°C° 0 mm 5 m/s 754 mmHg 86%
04:00 +10°C° 0 mm 5 m/s 754 mmHg 88%
05:00 +10°C° 0 mm 5 m/s 754 mmHg 89%
06:00 +10°C° 0 mm 4 m/s 754 mmHg 91%
07:00 +10°C° 0 mm 3 m/s 753 mmHg 93%
08:00 +11°C° 0 mm 3 m/s 753 mmHg 89%
09:00 +12°C° 0 mm 3 m/s 753 mmHg 85%
10:00 +13°C° 0 mm 4 m/s 753 mmHg 82%
11:00 +13°C° 0 mm 3 m/s 753 mmHg 79%
12:00 +14°C° 0 mm 3 m/s 753 mmHg 77%
13:00 +16°C° 0 mm 3 m/s 753 mmHg 74%
14:00 +14°C° 0.1 mm 3 m/s 753 mmHg 79%
15:00 +13°C° 0.1 mm 3 m/s 753 mmHg 83%
16:00 +13°C° 0.1 mm 2 m/s 752 mmHg 88%
17:00 +12°C° 0.4 mm 3 m/s 753 mmHg 89%
18:00 +12°C° 0.4 mm 3 m/s 753 mmHg 91%
19:00 +11°C° 0.4 mm 3 m/s 753 mmHg 93%
20:00 +11°C° 0.2 mm 3 m/s 753 mmHg 93%
21:00 +11°C° 0.2 mm 3 m/s 754 mmHg 93%
22:00 +11°C° 0.2 mm 3 m/s 754 mmHg 93%
23:00 +10°C° 0 mm 3 m/s 754 mmHg 92%

Depois de amanhã, 27 Outubro, Terça-feira

Tempo Temperatura Precipitação Vento Pressão Humidade
00:00 +10°C° 0 mm 3 m/s 754 mmHg 91%
01:00 +10°C° 0 mm 2 m/s 754 mmHg 91%
02:00 +10°C° 0 mm 2 m/s 754 mmHg 90%
03:00 +9°C° 0 mm 2 m/s 754 mmHg 90%
04:00 +9°C° 0 mm 2 m/s 755 mmHg 89%
05:00 +9°C° 0 mm 2 m/s 755 mmHg 89%
06:00 +9°C° 0 mm 2 m/s 755 mmHg 89%
07:00 +9°C° 0 mm 2 m/s 755 mmHg 88%
08:00 +10°C° 0 mm 3 m/s 755 mmHg 84%
09:00 +11°C° 0 mm 3 m/s 755 mmHg 80%
10:00 +12°C° 0 mm 4 m/s 756 mmHg 76%
11:00 +12°C° 0 mm 3 m/s 756 mmHg 74%
12:00 +12°C° 0 mm 3 m/s 756 mmHg 72%
13:00 +13°C° 0 mm 3 m/s 756 mmHg 70%
14:00 +12°C° 0.1 mm 3 m/s 756 mmHg 74%
15:00 +12°C° 0.1 mm 3 m/s 755 mmHg 78%
16:00 +11°C° 0.1 mm 4 m/s 755 mmHg 81%
17:00 +11°C° 0 mm 4 m/s 756 mmHg 82%
18:00 +10°C° 0 mm 5 m/s 756 mmHg 83%
19:00 +9°C° 0 mm 5 m/s 756 mmHg 84%
20:00 +9°C° 0 mm 5 m/s 756 mmHg 84%
21:00 +9°C° 0 mm 5 m/s 756 mmHg 84%
22:00 +9°C° 0 mm 5 m/s 756 mmHg 83%
23:00 +8°C° 0 mm 5 m/s 756 mmHg 85%

28 Outubro, Quarta-feira

Tempo Temperatura Precipitação Vento Pressão Humidade
00:00 +8°C° 0 mm 6 m/s 756 mmHg 88%
01:00 +7°C° 0 mm 6 m/s 756 mmHg 90%
02:00 +7°C° 0 mm 6 m/s 756 mmHg 89%
03:00 +7°C° 0 mm 6 m/s 756 mmHg 89%
04:00 +7°C° 0 mm 6 m/s 756 mmHg 89%
05:00 +7°C° 0 mm 6 m/s 756 mmHg 88%
06:00 +6°C° 0 mm 7 m/s 756 mmHg 87%
07:00 +6°C° 0 mm 7 m/s 756 mmHg 86%
08:00 +8°C° 0 mm 7 m/s 756 mmHg 80%
09:00 +9°C° 0 mm 8 m/s 756 mmHg 74%
10:00 +10°C° 0 mm 9 m/s 756 mmHg 68%
11:00 +10°C° 0 mm 8 m/s 756 mmHg 69%
12:00 +10°C° 0 mm 8 m/s 756 mmHg 71%
13:00 +10°C° 0 mm 8 m/s 756 mmHg 72%
14:00 +10°C° 0 mm 8 m/s 756 mmHg 73%
15:00 +10°C° 0 mm 7 m/s 756 mmHg 74%
16:00 +9°C° 0 mm 7 m/s 756 mmHg 74%
17:00 +9°C° 0 mm 7 m/s 756 mmHg 75%
18:00 +9°C° 0 mm 7 m/s 756 mmHg 76%
19:00 +9°C° 0 mm 7 m/s 756 mmHg 77%
20:00 +9°C° 0 mm 7 m/s 756 mmHg 79%
21:00 +8°C° 0 mm 7 m/s 756 mmHg 80%
22:00 +8°C° 0 mm 6 m/s 756 mmHg 82%
23:00 +8°C° 0 mm 6 m/s 756 mmHg 82%

29 Outubro, Quinta-feira

Tempo Temperatura Precipitação Vento Pressão Humidade
00:00 +8°C° 0 mm 7 m/s 756 mmHg 82%
01:00 +8°C° 0 mm 7 m/s 756 mmHg 83%
02:00 +8°C° 0 mm 7 m/s 756 mmHg 83%
03:00 +8°C° 0 mm 7 m/s 755 mmHg 83%
04:00 +8°C° 0 mm 7 m/s 755 mmHg 84%
05:00 +8°C° 0 mm 7 m/s 755 mmHg 84%
06:00 +8°C° 0 mm 7 m/s 755 mmHg 84%
07:00 +8°C° 0 mm 7 m/s 755 mmHg 85%
08:00 +9°C° 0.1 mm 7 m/s 755 mmHg 83%
09:00 +9°C° 0.1 mm 7 m/s 756 mmHg 82%
10:00 +10°C° 0.1 mm 7 m/s 756 mmHg 80%
11:00 +10°C° 0.2 mm 8 m/s 756 mmHg 76%
12:00 +11°C° 0.2 mm 8 m/s 756 mmHg 71%
13:00 +11°C° 0.2 mm 8 m/s 757 mmHg 66%
14:00 +11°C° 0 mm 8 m/s 757 mmHg 68%
15:00 +10°C° 0 mm 7 m/s 757 mmHg 71%
16:00 +10°C° 0 mm 7 m/s 758 mmHg 73%
17:00 +10°C° 0 mm 7 m/s 758 mmHg 75%
18:00 +9°C° 0 mm 7 m/s 758 mmHg 76%
19:00 +9°C° 0 mm 7 m/s 759 mmHg 78%
20:00 +9°C° 0 mm 7 m/s 759 mmHg 78%
21:00 +9°C° 0 mm 7 m/s 759 mmHg 78%
22:00 +9°C° 0 mm 7 m/s 759 mmHg 78%
23:00 +9°C° 0 mm 8 m/s 759 mmHg 77%

30 Outubro, Sexta-feira

Tempo Temperatura Precipitação Vento Pressão Humidade
00:00 +9°C° 0 mm 8 m/s 759 mmHg 77%
01:00 +8°C° 0 mm 9 m/s 758 mmHg 76%
02:00 +8°C° 0.5 mm 9 m/s 758 mmHg 79%
03:00 +8°C° 0.5 mm 10 m/s 758 mmHg 82%
04:00 +8°C° 0.5 mm 10 m/s 757 mmHg 85%
05:00 +9°C° 0.3 mm 10 m/s 757 mmHg 86%
06:00 +9°C° 0.3 mm 10 m/s 757 mmHg 86%
07:00 +11°C° 0.3 mm 10 m/s 757 mmHg 86%
08:00 +11°C° 0.1 mm 9 m/s 758 mmHg 86%
09:00 +12°C° 0.1 mm 9 m/s 758 mmHg 85%
10:00 +12°C° 0.1 mm 9 m/s 758 mmHg 85%
11:00 +12°C° 0.3 mm 9 m/s 758 mmHg 85%
12:00 +12°C° 0.3 mm 9 m/s 759 mmHg 85%
13:00 +12°C° 0.3 mm 9 m/s 759 mmHg 84%
14:00 +12°C° 0.1 mm 8 m/s 759 mmHg 83%
15:00 +13°C° 0.1 mm 8 m/s 759 mmHg 82%
16:00 +13°C° 0.1 mm 8 m/s 759 mmHg 80%
17:00 +12°C° 0 mm 8 m/s 759 mmHg 80%
18:00 +12°C° 0 mm 7 m/s 760 mmHg 80%
19:00 +12°C° 0 mm 7 m/s 760 mmHg 80%
20:00 +12°C° 0 mm 7 m/s 760 mmHg 80%
21:00 +12°C° 0 mm 7 m/s 760 mmHg 80%
22:00 +12°C° 0 mm 7 m/s 760 mmHg 80%
23:00 +11°C° 0 mm 7 m/s 761 mmHg 81%
Mostrar mais